Content
SEND FEEDBACK

Daily
Averages
Monthly
Summary
United States of America

PLANADA, CALIFORNIA


Home > North America > United States > California
Elevation: 176 feet     Latitude: 37 19N     Longitude: 120 28W

WEATHER
 
SELECT A DAY
Number of Records: 96,014;   Date Range: 1/2/95 - 10/22/14
 
SHARE

PRINT THIS DATA

[ ← Previous Day ]
WEATHER ALMANAC - JANUARY 31, 2013
[ Next Day → ]
[ °C ]   °F
Weather ElementAverageHighLow
Temperature43.3 °F64.4 °F (1:45 pm)35.6 °F (1:35 am)
Dewpoint40.5 °F50 °F (9:45 am)35.6 °F (1:35 am)
Humidity92.2 %100 % (12:35 am)45 % (2:45 pm)
Barometer30.25 in30.31 in (9:45 am)30.19 in (5:45 pm)
Wind Speed0.5 mph5.8 mph (6:45 pm)
Weather ElementAverage
Visibility6 mi
Wind DirectionNNE (35 °)

Weather ElementTotal
Precipitation---
Heating Degree Days15 (Base 65)
Averaged from 40 records on January 31, 2013
WEATHER CONDITIONS BREAKOUT
WIND DIRECTION BREAKOUT
WEATHER BY HOUR - JANUARY 31, 2013
[ °C ]   °F
Local TimeTemperatureDewpointHumidityBarometerVisibilityWind DirectionWind SpeedGust SpeedPrecipitationEventsConditions
12:35 AM37.4 °F37.4 °F100 %30.30 in7.0 miCalmClear
12:55 AM37.4 °F37.4 °F100 %30.30 in5.0 miCalmClear
1:15 AM37.4 °F37.4 °F100 %30.30 in7.0 miCalmClear
1:35 AM35.6 °F35.6 °F100 %30.30 in5.0 miCalmClear
1:55 AM35.6 °F35.6 °F100 %30.30 in6.0 miCalmClear
2:15 AM35.6 °F35.6 °F100 %30.30 in4.0 miCalmClear
2:35 AM35.6 °F35.6 °F100 %30.30 in5.0 miCalmClear
2:55 AM35.6 °F35.6 °F100 %30.29 in5.0 miCalmClear
3:15 AM35.6 °F35.6 °F100 %30.29 in3.0 miCalmClear
3:35 AM35.6 °F35.6 °F100 %30.28 in4.0 miCalmClear
3:55 AM35.6 °F35.6 °F100 %30.28 in5.0 miCalmClear
4:15 AM35.6 °F35.6 °F100 %30.29 in4.0 miCalmClear
4:55 AM35.6 °F35.6 °F100 %30.28 in4.0 miCalmClear
5:15 AM37.4 °F37.4 °F100 %30.28 in5.0 miCalmClear
5:35 AM35.6 °F35.6 °F100 %30.28 in10.0 miCalmClear
5:55 AM35.6 °F35.6 °F100 %30.28 in10.0 miCalmClear
6:45 AM35.6 °F35.6 °F100 %30.28 in6.0 miNNW (330°)3.5 mphHaze
7:45 AM37.4 °F37.4 °F100 %30.29 in6.0 miCalmHaze
8:45 AM44.6 °F44.6 °F100 %30.30 in6.0 miCalmHaze
9:45 AM51.8 °F50.0 °F94 %30.31 in5.0 miCalmHaze
10:45 AM55.4 °F48.2 °F77 %30.31 in5.0 miCalmHaze
11:50 AM60.8 °F46.4 °F59 %30.29 in7.0 miCalmClear
1:45 PM64.4 °F44.6 °F49 %30.24 in7.0 miCalmClear
2:45 PM64.4 °F42.8 °F45 %30.22 in7.0 miCalmClear
4:45 PM62.6 °F44.6 °F52 %30.20 in7.0 miCalmClear
5:45 PM55.4 °F44.6 °F67 %30.19 in7.0 miCalmClear
6:45 PM53.6 °F44.6 °F72 %30.20 in7.0 miWest (280°)5.8 mphClear
7:45 PM48.2 °F44.6 °F87 %30.20 in7.0 miNW (320°)4.6 mphClear
8:15 PM48.2 °F46.4 °F93 %30.20 in10.0 miNW (320°)3.5 mphClear
8:35 PM48.2 °F46.4 °F93 %30.20 in9.0 miCalmClear
8:45 PM46.4 °F46.4 °F100 %30.20 in7.0 miCalmClear
8:55 PM46.4 °F46.4 °F100 %30.20 in9.0 miCalmClear
9:15 PM44.6 °F44.6 °F100 %30.20 in8.0 miCalmClear
9:35 PM44.6 °F44.6 °F100 %30.20 in7.0 miCalmClear
10:15 PM42.8 °F42.8 °F100 %30.20 in5.0 miCalmClear
10:35 PM41.0 °F41.0 °F100 %30.20 in5.0 miCalmClear
10:55 PM39.2 °F39.2 °F100 %30.21 in5.0 miCalmClear
11:15 PM39.2 °F39.2 °F100 %30.21 in3.0 miCalmClear
11:35 PM39.2 °F39.2 °F100 %30.21 in3.0 miCalmClear
11:55 PM39.2 °F39.2 °F100 %30.21 in3.0 miSSE (150°)3.5 mphClear
Hourly data recorded from KMER, located miles away from Planada, California







STORIES FROM OUR PARTNERS